Date,TemperatureHighF,TemperatureAvgF,TemperatureLowF,DewpointHighF,DewpointAvgF,DewpointLowF,HumidityHigh,HumidityAvg,HumidityLow,PressureMaxIn,PressureMinIn,WindSpeedMaxMPH,WindSpeedAvgMPH,GustSpeedMaxMPH,PrecipitationSumIn
2013-11-1,70.7,59.1,44.4,61.6,51.1,42.1,94,76,56,29.70,29.34,6,2,28,0.14
2013-11-2,53.6,48.6,44.9,47.0,44.5,41.9,94,86,70,29.98,29.66,3,0,10,0.02
2013-11-3,48.3,41.2,28.5,42.9,34.6,25.3,95,78,56,30.49,29.97,5,1,15,0.00
2013-11-4,46.9,36.5,25.3,31.6,26.6,23.0,93,70,44,30.60,30.47,4,0,11,0.00
2013-11-5,58.6,45.5,33.8,39.8,34.7,29.9,91,68,43,30.56,30.37,3,0,8,0.00
2013-11-6,72.8,54.3,31.5,57.9,45.4,29.4,96,74,51,30.37,29.94,6,1,16,0.02
2013-11-7,60.7,46.7,39.3,57.6,42.0,29.7,96,84,62,30.15,29.87,9,1,14,0.74
2013-11-8,45.3,37.5,26.0,34.6,30.2,23.9,92,76,55,30.34,30.11,5,1,19,0.00
2013-11-9,57.8,40.8,24.2,35.7,28.7,22.5,96,67,34,30.34,30.00,6,1,15,0.01
2013-11-10,53.4,45.4,31.5,39.6,34.8,27.8,87,67,48,30.30,29.99,5,1,17,0.00
2013-11-11,49.5,39.4,25.9,41.1,32.1,23.9,95,77,46,30.31,30.07,6,1,14,0.04
2013-11-12,39.5,31.8,28.2,36.4,26.9,22.0,93,82,60,30.52,30.12,9,3,17,0.17
2013-11-13,37.1,30.0,20.3,26.9,23.8,18.1,94,78,57,30.58,30.43,3,0,11,0.04
2013-11-14,49.7,34.9,26.1,28.0,24.8,22.1,89,69,39,30.43,30.22,4,1,12,0.00
2013-11-15,56.7,42.6,26.8,40.6,29.6,23.5,89,64,32,30.27,30.17,4,1,12,0.00
2013-11-16,62.2,50.1,32.8,51.0,43.9,30.8,96,80,65,30.27,30.06,3,0,10,0.00
2013-11-17,61.5,56.5,45.4,59.5,54.1,42.9,96,92,83,30.06,29.55,5,1,16,0.54
2013-11-18,57.2,49.7,39.8,53.6,38.6,29.3,88,66,50,30.07,29.64,8,3,22,0.00
2013-11-19,39.8,35.6,24.9,30.4,27.5,22.4,91,72,64,30.45,30.07,7,2,18,0.00
2013-11-20,48.3,33.9,20.4,27.3,21.1,18.0,95,65,30,30.53,30.41,8,2,18,0.00
2013-11-21,57.2,41.9,26.3,43.1,33.5,21.2,90,73,52,30.49,30.26,3,0,10,0.00
2013-11-22,53.7,49.0,38.2,52.9,47.0,33.5,97,93,81,30.26,30.07,11,2,24,0.28
2013-11-23,39.2,32.7,21.7,33.7,25.9,11.0,92,76,57,30.39,30.16,11,3,23,0.00
2013-11-24,27.0,20.7,13.0,16.2,13.2,10.0,88,73,56,30.60,30.38,9,3,20,0.00
2013-11-25,37.8,25.2,11.1,26.5,13.6,8.7,91,65,35,30.58,30.28,3,0,10,0.00
2013-11-26,37.1,34.0,31.8,34.4,32.3,26.8,96,94,66,30.29,29.75,3,0,8,1.07
2013-11-27,34.4,30.1,24.4,33.4,27.0,19.1,96,88,78,30.17,29.74,9,3,16,0.05
2013-11-28,30.5,25.9,16.3,24.4,19.6,13.2,89,77,63,30.48,30.17,2,0,10,0.05
2013-11-29,35.6,27.8,19.7,26.9,22.3,17.4,93,81,61,30.71,30.48,1,0,4,0.07
2013-11-30,40.4,28.2,17.7,27.9,22.6,15.5,94,81,58,30.69,30.29,4,0,11,0.00